Flag Weather past 2 weeks in Ann Arbor, Michigan, U.S.A.

Now
27 °F

Passing clouds.


Feels Like: 20 °F
Forecast: 23 / 34 °F
Wind: 6 mph from Northwest

Location: Ann Arbor Municipal Airport

Current Time: Nov 27, 2014 at 3:59:27 AM

Latest Report: Nov 27, 2014 at 2:53 AM


Visibility: 10 mi

Pressure: 30.12 "Hg

Humidity: 81%

Dew point: 22 °F

Location of Ann ArborLocation

Historic Weather in Ann Arbor — Graph

°F

Ann Arbor temperature yesterday

Maximum temperature yesterday: 33 °F (at 3:53 PM)
Minimum temperature yesterday: 28 °F (at 1:53 AM)
Average temperature yesterday: 30 °F

Past Weeks' High & Low Weather Summary

 TemperatureHumidityPressure
High58 °F (Nov 24, 12:03 PM)93% (Nov 16, 11:53 PM)30.50 "Hg (Nov 16, 11:53 PM)
Low3 °F (Nov 21, 6:53 AM)49% (Nov 15, 12:53 PM)29.05 "Hg (Nov 24, 2:53 AM)
Average29 °F73%30.03 "Hg
* Reported Nov 12 2:53 AM — Nov 27 2:53 AM, Ann Arbor, Weather by CustomWeather, © 2014

Note: Actual official high and low records may vary slightly from our data, if they occured in-between our weather recording intervals... More about our weather records

Advertising

Ann Arbor weather history for previous 24 hours

 ConditionsComfort  
Time TempWeatherWind HumidityBarometerVisibility
2:53 AM
Nov 27
27 °FPassing clouds.6 mph81%30.12 "Hg10 mi
1:53 AM28 °FPassing clouds.7 mph78%30.11 "Hg10 mi
12:53 AM29 °FOvercast.8 mph75%30.11 "Hg10 mi
11:53 PM
Nov 26
30 °FOvercast.10 mph75%30.11 "Hg10 mi
10:53 PM31 °FOvercast.8 mph73%30.11 "Hg10 mi
9:53 PM31 °FOvercast.8 mph73%30.10 "Hg10 mi
8:53 PM31 °FOvercast.8 mph73%30.10 "Hg10 mi
7:53 PM31 °FOvercast.7 mph76%30.10 "Hg10 mi
6:53 PM32 °FMostly cloudy.8 mph73%30.10 "Hg10 mi
5:53 PM32 °FMostly cloudy.6 mph73%30.12 "Hg10 mi
4:53 PM32 °FMostly cloudy.5 mph73%30.13 "Hg7 mi
3:53 PM33 °FMore clouds than sun.No wind66%30.12 "Hg10 mi
2:53 PM32 °FOvercast.No wind69%30.11 "Hg10 mi
1:53 PM32 °FOvercast.5 mph69%30.13 "Hg10 mi
12:53 PM32 °FMostly cloudy.3 mph66%30.13 "Hg10 mi
11:53 AM31 °FOvercast.No wind69%30.16 "Hg10 mi
10:53 AM31 °FMore clouds than sun.No wind73%30.19 "Hg10 mi
9:53 AM30 °FMore clouds than sun.3 mph69%30.19 "Hg10 mi
8:53 AM30 °FOvercast.5 mph66%30.19 "Hg10 mi
7:53 AM29 °FOvercast.No wind69%30.19 "Hg10 mi
6:53 AM29 °FOvercast.3 mph66%30.19 "Hg10 mi
5:53 AM28 °FOvercast.No wind69%30.20 "Hg10 mi
4:53 AM28 °FOvercast.No wind69%30.21 "Hg10 mi
3:53 AM29 °FOvercast.3 mph66%30.21 "Hg10 mi
Weather by CustomWeather, © 2014

See weather overviewHow to use our weather pages